New York Downtown Manhattan/w, NY

2:23 PM EDT on August 20, 2019 (GMT -0400)
New York Downtown Manhattan/w

Weather History for KJRB - June, 2019

Change the Weather History Date:

Tuesday, June 4, 2019

  Actual Average (WUND) Record (WUND)
Temperature  
Mean Temperature 65 °F -  
Max Temperature 73 °F - - (-1)
Min Temperature 57 °F - - (-1)
Growing Degree Days 15 (Base 50)    
Moisture  
Dew Point 44 °F    
Average Humidity 47    
Maximum Humidity 59    
Minimum Humidity 33    
Precipitation  
Precipitation 0.00 in - - ()
Sea Level Pressure  
Sea Level Pressure 30.08 in    
Wind  
Wind Speed 6 mph ()    
Max Wind Speed 13 mph    
Max Gust Speed 23 mph    
Visibility 10.0 miles    
Events      
Averages and records for this station are not official NWS values.
T = Trace of Precipitation, MM = Missing Value Source: Averaged Metar Reports

Daily Weather History Graph

Daily Weather History Graph

Search for Another Location

Airport or City:

Astronomy

Jun. 04, 2019 Rise Set
Actual Time 5:26 AM EDT 8:22 PM EDT
Civil Twilight 4:53 AM EDT 8:55 PM EDT
Nautical Twilight 4:11 AM EDT 9:37 PM EDT
Astronomical Twilight 3:23 AM EDT 10:25 PM EDT
Moon 6:32 AM EDT (6/4) 9:48 PM EDT (6/4)
Length of Visible Light 16h 02m
Length of Day
14h 56m
New Moon, 2% of the Moon is Illuminated
Jun 4
New Moon
Jun 10
First Quarter
Jun 17
Full
Jun 25
Last Quarter
Jul 2
New

Hourly Weather History & Observations

Time (EDT) Temp. Dew Point Humidity Pressure Visibility Wind Dir Wind Speed Gust Speed Precip Events Conditions
12:56 AM 62.1 °F 44.1 °F 52% 30.06 in 10.0 mi ENE 5.8 mph - N/A   Clear
1:56 AM 60.1 °F 42.1 °F 51% 30.07 in 10.0 mi Variable 3.5 mph - N/A   Clear
2:56 AM 59.0 °F 39.9 °F 49% 30.09 in 10.0 mi West 4.6 mph - N/A   Clear
3:56 AM 57.9 °F 39.9 °F 51% 30.08 in 10.0 mi WSW 3.5 mph - N/A   Clear
4:56 AM 57.0 °F 41.0 °F 55% 30.10 in 10.0 mi West 6.9 mph - N/A   Clear
5:56 AM 57.0 °F 39.9 °F 53% 30.11 in 10.0 mi Variable 4.6 mph - N/A   Clear
6:56 AM 57.0 °F 42.1 °F 57% 30.14 in 10.0 mi WSW 6.9 mph - N/A   Clear
7:56 AM 57.0 °F 43.0 °F 59% 30.16 in 10.0 mi WSW 8.1 mph - N/A   Clear
8:56 AM 59.0 °F 42.1 °F 53% 30.17 in 10.0 mi SW 5.8 mph - N/A   Clear
9:56 AM 64.0 °F 42.1 °F 45% 30.17 in 10.0 mi West 10.4 mph 18.4 mph N/A   Clear
10:56 AM 66.0 °F 44.1 °F 45% 30.14 in 10.0 mi WSW 9.2 mph - N/A   Clear
11:56 AM 68.0 °F 41.0 °F 37% 30.14 in 10.0 mi WSW 12.7 mph - N/A   Clear
12:56 PM 69.1 °F 42.1 °F 38% 30.11 in 10.0 mi Variable 5.8 mph 20.7 mph N/A   Clear
1:56 PM 71.1 °F 41.0 °F 34% 30.09 in 10.0 mi WSW 10.4 mph 20.7 mph N/A   Clear
2:56 PM 72.0 °F 43.0 °F 35% 30.06 in 10.0 mi WSW 12.7 mph 23.0 mph N/A   Clear
3:56 PM 73.0 °F 42.1 °F 33% 30.05 in 10.0 mi WSW 9.2 mph - N/A   Clear
4:56 PM 71.1 °F 45.0 °F 39% 30.03 in 10.0 mi SSW 11.5 mph - N/A   Clear
5:56 PM 73.0 °F 46.9 °F 39% 30.02 in 10.0 mi SW 5.8 mph - N/A   Clear
6:56 PM 70.0 °F 46.9 °F 44% 30.03 in 10.0 mi West 11.5 mph - N/A   Clear
7:56 PM 69.1 °F 46.0 °F 44% 30.02 in 10.0 mi West 10.4 mph - N/A   Clear
8:56 PM 66.9 °F 48.9 °F 52% 30.02 in 10.0 mi WSW 10.4 mph - N/A   Clear
9:56 PM 66.9 °F 46.9 °F 49% 30.02 in 10.0 mi WSW 8.1 mph - N/A   Clear
10:56 PM 64.9 °F 48.9 °F 56% 30.01 in 10.0 mi WSW 10.4 mph - N/A   Scattered Clouds
11:56 PM 66.0 °F 48.9 °F 54% 30.01 in 10.0 mi West 8.1 mph - N/A   Clear